Weather History for Land O' Lakes, WI

Change the Weather History Date:

Friday, March 28, 2014

  Actual Average (KEGV) Record (KEGV)
Temperature  
Mean Temperature 28 °F -  
Max Temperature 35 °F 44 °F 58 °F (1993)
Min Temperature 21 °F 24 °F -3 °F (2011)
Degree Days  
Heating Degree Days 38    
Moisture  
Dew Point 21 °F    
Average Humidity 79    
Maximum Humidity 97    
Minimum Humidity 57    
Precipitation  
Precipitation 0.19 in - - ()
Sea Level Pressure  
Sea Level Pressure 29.94 in    
Wind  
Wind Speed 7 mph (NNW)    
Max Wind Speed 12 mph    
Max Gust Speed 18 mph    
Visibility 9 miles    
Events Snow    
Averages and records for this station are not official NWS values.
T = Trace of Precipitation, MM = Missing Value Source: NWS Daily Summary

Daily Weather History Graph

Daily Weather History Graph

Search for Another Location

Airport:

Trip Planner

Search our weather history database for the weather conditions in past years. The results will help you decide how hot, cold, wet, or windy it might be!

Date:

Astronomy

Mar. 28, 2014 Rise Set
Actual Time 6:44 AM CDT 7:20 PM CDT
Civil Twilight 6:14 AM CDT 7:50 PM CDT
Nautical Twilight 5:38 AM CDT 8:26 PM CDT
Astronomical Twilight 5:01 AM CDT 9:03 PM CDT
Moon 5:22 AM CDT (3/28) 5:10 PM CDT (3/28)
Length of Visible Light 13h 36m
Length of Day
12h 35m
Waning Crescent, 6% of the Moon is Illuminated
Mar 28
Waning Crescent
Mar 30
New
Apr 7
First Quarter
Apr 15
Full
Apr 22
Last Quarter

Hourly Weather History & Observations

Time (CDT) Temp. Windchill Dew Point Humidity Pressure Visibility Wind Dir Wind Speed Gust Speed Precip Events Conditions
12:15 AM 27.3 °F 19.9 °F 25.5 °F 93% 29.57 in 7.0 mi North 6.9 mph - N/A   Overcast
12:35 AM 27.0 °F 18.7 °F 25.7 °F 95% 29.58 in 10.0 mi North 8.1 mph - N/A   Overcast
12:55 AM 26.6 °F 17.5 °F 25.7 °F 96% 29.60 in 7.0 mi North 9.2 mph - N/A   Overcast
1:15 AM 26.6 °F 16.8 °F 25.7 °F 96% 29.60 in 5.0 mi North 10.4 mph - N/A   Overcast
1:35 AM 26.4 °F 17.3 °F 25.5 °F 96% 29.60 in 5.0 mi North 9.2 mph - N/A   Overcast
1:55 AM 26.1 °F 17.6 °F 25.3 °F 97% 29.61 in 5.0 mi North 8.1 mph 16.1 mph N/A   Overcast
2:15 AM 26.1 °F 16.8 °F 25.2 °F 96% 29.61 in 7.0 mi North 9.2 mph - N/A   Overcast
2:35 AM 25.7 °F 15.7 °F 25.0 °F 97% 29.62 in 4.0 mi North 10.4 mph - N/A   Overcast
2:55 AM 25.5 °F 16.2 °F 24.8 °F 97% 29.62 in 4.0 mi North 9.2 mph - N/A   Overcast
3:15 AM 25.5 °F 16.2 °F 24.8 °F 97% 29.64 in 4.0 mi North 9.2 mph - N/A Snow Light Snow
3:35 AM 25.5 °F 15.5 °F 24.6 °F 96% 29.65 in 5.0 mi North 10.4 mph - N/A   Overcast
3:55 AM 25.3 °F 14.7 °F 24.4 °F 96% 29.66 in 5.0 mi North 11.5 mph - N/A   Overcast
4:15 AM 25.0 °F 15.5 °F 23.9 °F 96% 29.68 in 7.0 mi North 9.2 mph - N/A   Overcast
4:35 AM 24.8 °F 16.1 °F 23.4 °F 94% 29.69 in 7.0 mi North 8.1 mph - N/A   Overcast
4:55 AM 24.8 °F 15.3 °F 23.0 °F 93% 29.71 in 10.0 mi North 9.2 mph - N/A   Overcast
5:15 AM 24.6 °F 15.1 °F 22.6 °F 92% 29.72 in 10.0 mi North 9.2 mph 18.4 mph N/A   Overcast
5:35 AM 24.4 °F 17.5 °F 22.1 °F 91% 29.73 in 10.0 mi North 5.8 mph 9.2 mph N/A   Overcast
5:55 AM 24.3 °F 13.9 °F 22.1 °F 91% 29.75 in 10.0 mi North 10.4 mph - N/A   Overcast
6:15 AM 23.9 °F 15.0 °F 21.7 °F 91% 29.77 in 10.0 mi North 8.1 mph - N/A   Overcast
6:35 AM 23.7 °F 16.6 °F 21.2 °F 90% 29.79 in 10.0 mi NNW 5.8 mph - N/A   Overcast
6:55 AM 22.8 °F 13.6 °F 20.3 °F 90% 29.80 in 10.0 mi NNW 8.1 mph - N/A   Overcast
7:15 AM 21.9 °F 13.4 °F 19.4 °F 90% 29.82 in 10.0 mi NNW 6.9 mph - N/A   Mostly Cloudy
7:35 AM 21.2 °F 13.6 °F 18.9 °F 91% 29.84 in 10.0 mi NNW 5.8 mph - N/A   Scattered Clouds
7:55 AM 21.4 °F 13.8 °F 18.5 °F 89% 29.85 in 10.0 mi NNW 5.8 mph - N/A   Clear
8:15 AM 21.7 °F 14.3 °F 18.5 °F 87% 29.86 in 10.0 mi North 5.8 mph - N/A   Clear
8:35 AM 22.1 °F 14.7 °F 18.7 °F 87% 29.87 in 10.0 mi North 5.8 mph - N/A   Clear
8:55 AM 23.0 °F 15.8 °F 19.2 °F 85% 29.89 in 10.0 mi North 5.8 mph - N/A   Clear
9:15 AM 23.7 °F 16.6 °F 19.4 °F 84% 29.90 in 10.0 mi North 5.8 mph - N/A   Clear
9:35 AM 24.6 °F 17.7 °F 20.1 °F 83% 29.91 in 10.0 mi North 5.8 mph - N/A   Clear
9:55 AM 25.5 °F 19.9 °F 20.7 °F 82% 29.92 in 10.0 mi North 4.6 mph - N/A   Clear
10:15 AM 26.1 °F 19.4 °F 20.8 °F 81% 29.93 in 10.0 mi North 5.8 mph - N/A   Clear
10:35 AM 26.4 °F 19.8 °F 20.7 °F 79% 29.94 in 10.0 mi North 5.8 mph - N/A   Clear
10:55 AM 26.6 °F 18.2 °F 20.8 °F 79% 29.94 in 10.0 mi North 8.1 mph - N/A   Scattered Clouds
11:15 AM 27.7 °F 21.3 °F 21.2 °F 77% 29.95 in 10.0 mi North 5.8 mph - N/A   Scattered Clouds
11:35 AM 29.1 °F 22.1 °F 21.7 °F 74% 29.96 in 10.0 mi NNW 6.9 mph - N/A   Scattered Clouds
11:55 AM 30.2 °F 22.6 °F 21.6 °F 70% 29.97 in 10.0 mi NNW 8.1 mph - N/A   Scattered Clouds
12:15 PM 30.7 °F 24.9 °F 21.9 °F 70% 29.98 in 10.0 mi North 5.8 mph - N/A   Clear
12:35 PM 30.7 °F 23.3 °F 20.8 °F 67% 29.99 in 10.0 mi North 8.1 mph - N/A   Clear
12:55 PM 31.1 °F 23.7 °F 19.9 °F 63% 30.00 in 10.0 mi North 8.1 mph - N/A   Scattered Clouds
1:15 PM 31.8 °F 24.6 °F 20.5 °F 63% 30.01 in 10.0 mi North 8.1 mph - 0.04 in   Scattered Clouds
1:35 PM 31.5 °F 24.2 °F 19.9 °F 62% 30.01 in 10.0 mi NNW 8.1 mph - 0.08 in   Scattered Clouds
1:55 PM 31.1 °F 24.5 °F 19.8 °F 63% 30.01 in 10.0 mi NW 6.9 mph - 0.08 in   Scattered Clouds
2:15 PM 32.0 °F 24.2 °F 18.9 °F 58% 30.03 in 10.0 mi North 9.2 mph - 0.01 in   Mostly Cloudy
2:35 PM 32.7 °F 27.3 °F 18.9 °F 57% 30.04 in 10.0 mi WNW 5.8 mph - 0.01 in   Mostly Cloudy
2:55 PM 32.0 °F 27.5 °F 19.4 °F 60% 30.04 in 10.0 mi North 4.6 mph - 0.01 in   Mostly Cloudy
3:15 PM 32.0 °F 26.4 °F 19.8 °F 61% 30.06 in 10.0 mi NNW 5.8 mph - N/A   Scattered Clouds
3:35 PM 32.0 °F 27.5 °F 19.9 °F 61% 30.06 in 10.0 mi NW 4.6 mph - N/A   Mostly Cloudy
3:55 PM 33.1 °F 26.9 °F 19.2 °F 57% 30.06 in 10.0 mi NNW 6.9 mph - N/A   Mostly Cloudy
4:15 PM 34.9 °F 32.0 °F 21.2 °F 57% 30.06 in 10.0 mi NW 3.5 mph - N/A   Mostly Cloudy
4:35 PM 32.9 °F 27.5 °F 20.8 °F 61% 30.06 in 10.0 mi North 5.8 mph - 0.06 in   Overcast
4:55 PM 32.9 °F 28.5 °F 20.3 °F 60% 30.07 in 10.0 mi NW 4.6 mph - 0.08 in   Overcast
5:15 PM 32.9 °F 28.5 °F 21.0 °F 62% 30.10 in 10.0 mi West 4.6 mph - 0.01 in   Overcast
5:35 PM 32.0 °F 26.4 °F 18.7 °F 58% 30.10 in 10.0 mi NNW 5.8 mph - 0.02 in   Mostly Cloudy
5:55 PM 32.0 °F 27.5 °F 19.8 °F 61% 30.12 in 10.0 mi NW 4.6 mph - 0.02 in   Scattered Clouds
6:15 PM 31.6 °F 27.0 °F 19.2 °F 60% 30.12 in 10.0 mi NNW 4.6 mph - N/A   Scattered Clouds
6:35 PM 31.1 °F 26.4 °F 20.1 °F 64% 30.13 in 10.0 mi NNW 4.6 mph - N/A   Scattered Clouds
6:55 PM 30.7 °F 27.3 °F 20.3 °F 65% 30.13 in 10.0 mi NW 3.5 mph - N/A   Scattered Clouds
7:15 PM 30.0 °F 23.2 °F 20.3 °F 67% 30.13 in 10.0 mi NNW 6.9 mph - N/A   Scattered Clouds
7:35 PM 29.5 °F 25.9 °F 20.3 °F 69% 30.14 in 10.0 mi North 3.5 mph - N/A   Clear
7:55 PM 28.6 °F - 20.5 °F 72% 30.15 in 10.0 mi Calm Calm - N/A   Clear
8:15 PM 28.2 °F - 20.8 °F 74% 30.15 in 10.0 mi Calm Calm - N/A   Clear
8:35 PM 28.0 °F - 19.9 °F 72% 30.16 in 10.0 mi Calm Calm - N/A   Clear
8:55 PM 27.1 °F - 19.8 °F 74% 30.17 in 10.0 mi Calm Calm - N/A   Clear
9:10 PM 27.0 °F - 20.1 °F 75% 30.17 in 10.0 mi Calm Calm - N/A   Clear
9:35 PM 26.2 °F - 20.5 °F 79% 30.18 in 10.0 mi Calm Calm - N/A   Clear
9:55 PM 25.2 °F - 21.2 °F 85% 30.18 in 10.0 mi Calm Calm - N/A   Clear
10:15 PM 23.7 °F - 20.8 °F 89% 30.19 in 10.0 mi Calm Calm - N/A   Clear
10:35 PM 23.9 °F - 21.2 °F 89% 30.19 in 10.0 mi Calm Calm - N/A   Scattered Clouds
10:55 PM 23.9 °F - 21.4 °F 90% 30.20 in 10.0 mi Calm Calm - N/A   Mostly Cloudy
11:15 PM 23.9 °F - 21.7 °F 91% 30.20 in 10.0 mi Calm Calm - N/A   Overcast
11:35 PM 24.4 °F - 22.6 °F 93% 30.20 in 10.0 mi Calm Calm - N/A   Overcast
11:55 PM 23.9 °F - 21.7 °F 91% 30.20 in 10.0 mi Calm Calm - N/A   Overcast